This demonstration page uses our WeatherBlox Daily Observations layout. Learn more.

Left ArrowRight Arrow

34.02893, -84.19858

Hourly Observations for August 24, 2020

Temp ( °F °C ) Dew Point ( °F °C ) Humidity (%) Winds ( mph kmh ) Pressure ( in mb ) Visibility ( mi km ) Precip ( " mm )
12:04 am 00:04 Cloudy 75 23.9 72 22.2 90 90 Calm 30.10 1019 10 16 0.00 0.00
12:53 am 00:53 Cloudy 75 23.9 72 22.2 90 90 Calm 30.08 1019 10 16 0.00 0.00
1:06 am 01:06 Cloudy 75 23.9 72 22.2 90 90 Calm 30.09 1019 10 16 0.00 0.00
1:53 am 01:53 Partly Cloudy 74 23.3 72 22.2 94 94 VRB 3 6 30.06 1018 10 16 0.00 0.00
2:53 am 02:53 Mostly Clear 73 22.8 72 22.2 96 96 VRB 3 6 30.06 1018 10 16 0.00 0.00
3:15 am 03:15 Mostly Cloudy 73 22.8 72 22.2 96 96 ESE 3 6 30.08 1019 10 16 0.00 0.00
3:22 am 03:22 Mostly Cloudy 73 22.8 71 21.7 94 94 VRB 5 7 30.07 1018 10 16 0.00 0.00
3:37 am 03:37 Cloudy 73 22.8 71 21.7 94 94 VRB 5 7 30.07 1018 10 16 0.00 0.00
3:51 am 03:51 Mostly Cloudy 73 23 72 22 94 94 Calm 30.07 1018 10 16 0.00 0.00
3:53 am 03:53 Mostly Cloudy 73 22.8 71 21.7 94 94 VRB 3 6 30.06 1018 10 16 0.00 0.00
4:37 am 04:37 Cloudy 73 22.8 71 21.7 94 94 VRB 3 6 30.09 1019 10 16 0.00 0.00
4:53 am 04:53 Cloudy 73 22.8 71 21.7 94 94 SE 3 6 30.08 1019 10 16 0.00 0.00
5:03 am 05:03 Cloudy 73 22.8 71 21.7 94 94 Calm 30.10 1019 10 16 0.00 0.00
5:27 am 05:27 Cloudy 73 22.8 71 21.7 94 94 Calm 30.10 1019 10 16 0.00 0.00
5:36 am 05:36 Cloudy with Light Rain 73 22.8 71 21.7 94 94 VRB 3 6 30.10 1019 9 14 0.00 0.00
5:53 am 05:53 Mostly Cloudy with Light Rain 72 22.2 72 22.2 100 100 VRB 3 6 30.09 1019 8 13 0.01 0.25
6:39 am 06:39 Cloudy with Light Rain 72 22.2 72 22.2 100 100 Calm 30.13 1020 6 10 0.01 0.25
6:53 am 06:53 Cloudy with Light Rain 72 22.2 72 22.2 100 100 Calm 30.11 1020 5 8 0.03 0.76
7:36 am 07:36 Cloudy with Light Rain 72 22.2 72 22.2 100 100 Calm 30.14 1021 6 10 0.01 0.25
7:53 am 07:53 Cloudy with Light Rain 72 22.2 72 22.2 100 100 Calm 30.11 1020 6 10 0.02 0.51
8:12 am 08:12 Cloudy with Light Rain 73 22.8 72 22.2 96 96 ENE 3 6 30.13 1020 6 10 0.01 0.25
8:53 am 08:53 Cloudy with Light Rain 73 22.8 73 22.8 100 100 NNE 6 9 30.11 1020 9 14 0.01 0.25
9:53 am 09:53 Cloudy 74 23.3 73 22.8 97 97 VRB 5 7 30.13 1020 10 16 0.00 0.00
10:53 am 10:53 Mostly Cloudy 75 23.9 73 22.8 94 94 E 5 7 30.14 1021 10 16 0.00 0.00
11:33 am 11:33 Cloudy 76 24.4 72 22.2 88 88 VRB 3 6 30.15 1021 10 16 0.00 0.00
11:45 am 11:45 Cloudy 77 25 73 22.8 88 88 Calm 30.15 1021 10 16 0.00 0.00
11:53 am 11:53 Cloudy 76 24.4 72 22.2 88 88 VRB 5 7 30.14 1021 10 16 0.00 0.00
12:28 pm 12:28 Mostly Cloudy 78 25.6 72 22.2 82 82 VRB 6 9 30.13 1020 10 16 0.00 0.00
12:53 pm 12:53 Mostly Cloudy 80 26.7 72 22.2 76 76 VRB 5 7 30.11 1020 10 16 0.00 0.00
1:53 pm 13:53 Cloudy 84 28.9 73 22.8 70 70 N 6 9 30.09 1019 10 16 0.00 0.00
2:43 pm 14:43 Mostly Cloudy 83 28.3 72 22.2 70 70 Calm 30.07 1018 10 16 0.00 0.00
2:53 pm 14:53 Mostly Cloudy 82 27.8 73 22.8 74 74 SE 5 7 30.07 1018 10 16 0.00 0.00
3:53 pm 15:53 Sunny 82 27.8 73 22.8 74 74 VRB 6 9 30.05 1018 10 16 0.00 0.00
4:53 pm 16:53 Sunny 83 28.3 72 22.2 70 70 VRB 5 7 30.05 1018 10 16 0.00 0.00
5:53 pm 17:53 Cloudy 81 27.2 73 22.8 77 77 VRB 6 9 30.07 1018 10 16 0.00 0.00
6:53 pm 18:53 Mostly Cloudy 78 25.6 74 23.3 87 87 Calm 30.06 1018 10 16 0.00 0.00
7:53 pm 19:53 Cloudy with Light Rain 76 24.4 75 23.9 97 97 Calm 30.07 1018 9 14 0.00 0.00
8:53 pm 20:53 Mostly Clear with Light Rain 73 22.8 72 22.2 96 96 VRB 5 7 30.08 1019 10 16 0.02 0.51
9:53 pm 21:53 Clear 72 22.2 71 21.7 97 97 Calm 30.09 1019 10 16 0.02 0.51
10:53 pm 22:53 Clear 72 22.2 71 21.7 97 97 E 3 6 30.09 1019 10 16 0.00 0.00
11:53 pm 23:53 Clear 72 22.2 71 21.7 97 97 Calm 30.09 1019 10 16 0.00 0.00

Powered by AerisWeather